Wind_Speed
26 28 28 28 31 34 39 39 41 43 46 48 50 50 52 54 57 59 58 60 56 52 49 48 47 48 49 52 55 58 60 64 65 44 45 45 46 45 44 43 42 41 42
31 31 30 31 33 37 39 42 44 47 49 51 54 54 56 58 60 61 58 57 54 52 51 51 48 50 52 59 63 64 65 63 67 61 51 49 48 49 48 46 44 41 38
34 35 36 36 38 40 41 44 46 49 52 53 55 55 59 60 62 61 58 55 53 54 54 51 53 54 60 64 64 64 64 65 64 65 50 54 52 52 51 51 47 44 39
36 36 38 40 42 40 41 44 49 52 54 56 58 59 59 58 60 57 55 55 56 56 55 52 52 61 64 62 61 57 52 57 61 62 51 52 54 54 53 54 52 47 43
37 36 37 41 44 46 45 46 50 53 55 59 58 58 58 58 59 55 53 55 57 55 54 55 58 64 58 56 49 41 40 43 43 48 51 52 54 53 52 52 54 51 49
38 40 41 43 46 47 50 50 53 56 59 59 59 58 57 56 57 53 52 56 57 58 57 58 59 55 49 41 38 34 34 32 30 29 36 46 49 51 51 52 54 52 49
42 44 46 48 50 49 52 52 55 57 57 58 55 52 53 54 54 52 54 57 55 56 61 61 45 37 39 34 34 29 28 28 25 29 28 29 33 41 48 51 53 51 45
46 49 50 51 49 51 53 53 56 54 54 49 48 48 49 51 52 52 54 56 52 58 57 51 39 32 31 24 23 26 23 21 24 24 26 30 31 35 40 43 47 50 46
48 50 51 50 50 51 52 54 54 51 48 49 42 44 43 44 45 47 49 50 52 56 51 43 40 32 19 21 21 21 21 19 19 19 21 25 32 34 37 40 44 44 42
49 50 50 49 50 54 48 48 51 46 49 51 44 43 42 44 44 44 42 46 51 52 46 30 32 21 15 16 16 15 17 15 12 13 14 20 26 29 29 31 36 40 41
50 52 53 51 45 56 47 43 39 36 36 31 36 39 39 39 40 38 41 45 50 49 41 23 13 26 13 17 14 14 16 13 6 7 8 12 19 24 28 28 32 36 38
46 50 57 50 44 46 28 30 35 38 34 33 43 36 36 36 32 34 40 42 45 46 40 33 27 29 8 9 12 11 12 11 3 9 10 16 20 22 23 25 26 28 32
45 48 39 35 51 42 50 51 38 44 42 42 46 34 35 33 30 31 35 35 37 39 34 33 26 24 19 17 13 10 8 7 4 6 12 15 17 23 21 23 26 29 30
48 50 50 48 45 42 52 48 45 40 46 46 35 33 32 27 28 30 29 31 32 36 31 18 19 7 4 4 7 7 5 5 6 7 8 9 11 21 17 19 20 22 20
49 49 49 50 48 52 51 45 41 45 43 44 38 30 29 25 24 26 25 26 27 32 23 13 17 19 9 6 2 4 5 3 4 2 3 1 2 6 14 18 18 19 20
49 50 50 49 50 52 46 42 43 43 35 31 25 27 29 27 28 26 22 22 23 28 19 4 13 16 21 23 17 20 4 5 7 4 4 4 6 6 9 12 14 16 18
49 49 49 49 50 42 41 41 39 32 20 19 23 21 19 20 20 18 18 18 17 23 24 6 7 10 14 15 17 20 19 23 25 18 6 9 10 10 8 11 14 12 14
46 47 48 46 39 40 39 32 26 19 21 18 16 14 15 21 21 15 14 15 18 18 20 12 9 6 7 9 16 15 12 12 11 12 12 11 10 9 9 11 10 9 8
43 40 36 37 38 36 30 26 20 16 15 15 13 14 14 17 21 16 10 14 15 18 20 14 15 14 15 17 12 9 10 13 11 9 8 7 7 6 5 4 4 3 3
30 33 33 28 18 17 20 25 19 17 15 20 15 9 12 14 17 17 15 19 16 12 17 15 10 9 11 11 10 9 9 7 6 8 10 9 8 8 7 7 7 8 9
30 27 20 17 21 19 19 23 16 15 20 11 15 15 22 17 17 18 21 16 15 20 17 14 13 11 12 14 15 15 14 13 14 13 12 12 11 11 11 11 11 12 12
27 19 20 25 26 24 23 24 22 17 14 7 9 9 12 13 16 17 18 15 14 18 16 14 14 15 15 17 19 18 17 16 15 15 15 15 14 14 14 14 14 14 15
23 21 24 24 27 25 25 24 18 16 14 11 14 17 17 19 17 15 17 15 15 17 17 17 16 18 18 20 22 22 22 21 19 17 16 15 14 14 16 16 17 18 19
20 22 23 21 16 21 24 17 13 14 14 13 11 15 16 18 20 19 18 16 16 17 19 20 20 19 21 22 23 24 23 22 20 17 15 15 15 16 17 18 19 20 22
21 22 21 17 17 20 15 13 17 12 12 13 14 17 20 20 22 20 18 15 16 19 21 22 22 23 24 24 24 25 26 23 18 16 16 18 19 19 21 24 26 27 28
18 18 20 18 17 13 11 12 12 14 12 13 16 17 16 13 15 16 14 15 17 20 22 25 26 28 29 28 29 28 23 20 19 18 19 19 22 23 25 27 29 32 35
Wind_Direction
291 289 294 297 303 307 308 311 312 313 314 314 313 313 313 313 313 313 316 313 310 306 307 302 297 296 294 289 284 282 281 281 281 270 266 258 257 256 256 251 252 250 255
292 291 293 294 299 301 305 308 310 312 311 311 311 309 314 314 312 313 313 309 307 308 306 304 300 297 294 289 287 287 283 278 276 273 259 252 249 247 249 251 252 253 255
292 291 292 294 297 299 302 305 307 308 308 308 309 312 312 311 312 311 311 307 308 307 307 304 304 301 297 294 288 284 280 277 271 269 257 250 246 242 241 245 246 249 251
291 288 290 292 294 297 302 304 305 305 306 308 311 313 310 309 305 307 308 309 309 311 309 307 305 308 299 297 292 289 283 274 268 263 257 246 242 240 240 241 242 243 246
294 296 292 294 297 300 300 301 301 304 306 308 310 309 307 305 305 307 309 308 310 313 316 313 312 305 298 295 295 293 283 274 268 264 252 247 237 236 236 238 241 240 239
299 297 294 294 295 298 301 303 304 304 305 309 307 306 305 304 305 309 308 309 314 318 317 314 311 303 302 301 298 290 290 280 273 270 252 243 236 230 236 236 240 238 239
299 296 294 291 293 297 298 300 301 303 308 306 307 305 304 304 306 310 308 311 320 317 318 315 318 309 308 299 295 298 298 279 275 263 256 245 235 233 232 231 234 236 236
292 290 290 291 293 293 296 298 300 304 300 304 300 302 297 300 304 306 309 313 319 317 321 321 328 314 314 315 306 306 304 285 276 265 257 242 227 227 230 228 225 229 230
287 286 287 290 292 293 296 300 302 299 298 305 301 308 309 300 304 307 311 314 319 319 323 325 323 325 320 320 312 310 311 303 286 266 251 232 225 225 224 226 222 225 227
288 289 291 294 297 300 300 301 299 290 301 303 301 299 305 310 309 310 317 319 321 320 326 321 318 342 337 335 329 326 321 307 302 271 245 231 222 220 219 218 217 219 223
292 294 298 289 300 304 289 297 313 304 302 308 315 308 306 311 310 317 317 318 322 321 327 321 358 352 322 342 334 330 319 319 300 271 231 207 205 206 202 205 209 217 224
293 300 299 294 324 307 294 304 315 302 305 321 322 307 314 305 310 315 317 324 325 327 331 324 307 341 338 323 335 330 339 356 357 204 225 208 204 207 206 214 217 221 224
296 299 304 293 310 298 286 316 304 306 295 305 316 308 305 303 313 319 323 326 330 338 332 319 325 343 320 305 337 326 330 354 29 127 189 205 201 202 207 217 224 224 226
295 297 298 299 297 295 301 307 310 301 303 308 302 308 292 301 318 323 324 322 328 346 326 343 316 346 334 256 315 337 319 320 334 1 55 98 156 171 203 213 220 228 223
292 294 296 298 299 302 303 306 308 305 303 299 303 294 287 309 319 323 322 317 322 347 322 26 32 27 2 27 92 284 287 334 303 304 245 264 274 179 189 213 224 232 233
292 294 295 298 298 299 304 306 304 303 298 295 288 288 286 306 309 314 315 317 322 348 333 49 63 46 29 24 57 56 47 230 234 248 236 284 248 218 228 234 242 247 252
294 295 297 296 296 300 302 302 298 298 289 281 284 292 291 297 300 303 312 315 321 335 348 336 51 51 59 50 30 40 39 47 61 69 81 114 105 103 165 197 215 221 231
295 294 292 294 300 300 297 294 285 281 282 268 278 283 293 288 297 287 310 316 305 341 334 358 0 25 55 71 46 38 33 37 53 63 63 65 74 73 69 65 61 64 49
291 289 290 296 296 289 285 287 277 279 272 267 269 284 291 284 286 288 283 312 317 325 338 345 354 355 2 14 39 88 55 29 19 23 35 42 27 23 23 38 42 33 47
289 292 300 299 303 298 284 283 265 259 271 263 284 272 282 276 290 290 281 275 297 303 324 320 328 334 332 335 332 319 338 355 4 6 350 346 340 319 309 306 298 294 296
289 296 298 287 299 280 276 281 290 263 275 269 268 251 275 284 278 278 283 281 296 308 311 309 313 320 324 325 324 324 320 316 308 305 305 306 303 296 295 297 298 299 296
287 282 290 293 291 287 282 279 281 268 255 229 242 272 289 279 275 273 270 282 299 303 303 298 303 308 311 314 316 315 314 308 301 300 299 298 300 301 303 303 303 300 295
285 285 291 294 289 284 274 269 272 266 250 251 261 270 283 283 282 290 285 287 294 297 293 292 296 296 302 310 309 310 308 306 304 301 298 298 302 302 303 302 300 298 295
279 283 282 288 290 295 300 257 255 245 254 252 251 274 276 283 284 284 283 282 288 290 288 289 292 294 299 303 304 305 308 305 301 298 296 296 299 301 301 302 301 299 298
285 279 273 283 295 309 309 239 237 242 245 252 261 266 279 282 284 285 288 276 284 288 289 291 291 292 296 299 299 302 304 299 290 284 286 292 298 301 302 303 304 303 301
289 263 257 266 276 284 270 247 247 252 267 286 283 282 285 287 293 298 301 297 292 290 290 292 293 294 294 295 297 299 293 284 282 285 289 293 296 300 302 302 302 303 303
Height
5911 5907 5904 5902 5900 5896 5893 5889 5885 5880 5876 5871 5867 5862 5857 5852 5846 5840 5835 5829 5824 5819 5815 5809 5805 5800 5796 5791 5786 5782 5779 5773 5770 5794 5792 5793 5791 5791 5793 5795 5798 5800 5801
5906 5902 5897 5895 5892 5888 5884 5881 5876 5872 5868 5863 5858 5852 5846 5840 5834 5828 5823 5816 5810 5806 5801 5795 5789 5784 5778 5771 5766 5763 5758 5756 5750 5757 5772 5775 5777 5777 5778 5780 5785 5787 5792
5899 5894 5889 5886 5884 5881 5877 5872 5868 5865 5860 5854 5849 5843 5838 5831 5824 5817 5811 5804 5797 5790 5784 5778 5772 5764 5757 5749 5744 5739 5735 5731 5730 5729 5749 5750 5757 5760 5763 5766 5770 5775 5780
5892 5888 5881 5877 5876 5872 5869 5864 5860 5855 5849 5843 5838 5833 5826 5819 5811 5804 5799 5792 5783 5777 5770 5761 5753 5745 5734 5727 5721 5716 5711 5707 5706 5707 5720 5727 5734 5741 5745 5750 5756 5763 5769
5882 5877 5872 5869 5864 5860 5858 5855 5851 5845 5839 5833 5828 5821 5813 5806 5799 5793 5787 5779 5771 5763 5754 5745 5735 5725 5715 5708 5701 5698 5692 5689 5687 5687 5695 5703 5713 5721 5729 5736 5740 5747 5754
5873 5867 5864 5861 5857 5853 5848 5843 5839 5835 5829 5823 5818 5811 5803 5795 5787 5782 5774 5766 5758 5749 5740 5730 5721 5707 5698 5692 5687 5683 5680 5677 5675 5674 5678 5685 5693 5703 5711 5719 5724 5731 5741
5861 5858 5856 5852 5847 5843 5839 5835 5831 5825 5818 5812 5807 5800 5792 5784 5777 5771 5764 5755 5747 5736 5727 5716 5706 5694 5686 5681 5678 5673 5669 5666 5665 5666 5669 5674 5679 5686 5694 5702 5710 5718 5730
5854 5850 5844 5840 5837 5833 5829 5825 5819 5814 5808 5802 5795 5788 5779 5773 5767 5761 5754 5746 5736 5725 5714 5701 5693 5685 5677 5674 5668 5665 5662 5658 5657 5658 5660 5664 5670 5677 5684 5691 5699 5707 5715
5844 5838 5833 5831 5828 5824 5820 5814 5809 5803 5797 5790 5783 5777 5768 5761 5756 5750 5745 5738 5728 5718 5705 5693 5685 5675 5671 5667 5663 5661 5657 5654 5653 5652 5652 5656 5662 5667 5674 5682 5692 5701 5710
5830 5826 5824 5821 5817 5812 5808 5801 5796 5791 5785 5777 5772 5767 5760 5753 5746 5741 5737 5731 5721 5711 5701 5691 5681 5672 5669 5666 5662 5658 5655 5651 5649 5648 5648 5649 5654 5661 5669 5677 5685 5694 5702
5821 5817 5813 5806 5804 5797 5791 5791 5784 5779 5775 5768 5764 5759 5751 5744 5739 5736 5729 5723 5714 5705 5695 5688 5679 5673 5666 5663 5660 5657 5653 5651 5649 5648 5648 5650 5654 5659 5666 5674 5681 5687 5694
5810 5805 5796 5788 5789 5787 5781 5775 5772 5771 5767 5761 5757 5750 5744 5737 5732 5727 5723 5715 5706 5698 5690 5683 5676 5673 5667 5660 5659 5657 5654 5650 5643 5645 5647 5651 5654 5660 5667 5673 5678 5683 5689
5800 5796 5790 5782 5781 5778 5772 5765 5766 5761 5757 5752 5747 5741 5737 5732 5726 5722 5716 5710 5703 5695 5687 5680 5672 5671 5668 5662 5658 5656 5654 5652 5650 5644 5647 5649 5652 5658 5664 5669 5674 5678 5681
5790 5784 5780 5775 5772 5769 5764 5758 5755 5751 5747 5744 5737 5734 5729 5724 5720 5718 5712 5706 5701 5694 5688 5681 5672 5668 5665 5662 5658 5656 5654 5653 5652 5649 5650 5651 5654 5656 5659 5666 5670 5673 5677
5778 5774 5769 5764 5759 5755 5752 5749 5745 5740 5736 5731 5727 5724 5722 5717 5715 5712 5709 5705 5700 5694 5687 5682 5671 5667 5664 5662 5656 5654 5654 5654 5654 5654 5653 5655 5655 5657 5661 5664 5667 5669 5672
5766 5763 5759 5754 5749 5745 5741 5737 5733 5728 5725 5721 5719 5717 5714 5712 5712 5708 5705 5702 5699 5693 5688 5682 5673 5670 5669 5664 5658 5654 5653 5653 5652 5653 5653 5654 5655 5657 5659 5662 5664 5666 5667
5754 5750 5746 5742 5737 5734 5731 5726 5722 5718 5715 5715 5713 5711 5709 5707 5705 5704 5701 5699 5697 5692 5689 5683 5676 5672 5669 5668 5666 5660 5659 5656 5653 5654 5653 5653 5653 5654 5655 5656 5659 5660 5662
5741 5737 5733 5730 5728 5724 5719 5715 5713 5711 5710 5708 5707 5705 5704 5701 5699 5699 5697 5696 5694 5689 5687 5681 5677 5674 5672 5670 5667 5666 5665 5663 5662 5660 5659 5659 5659 5659 5657 5657 5657 5657 5658
5730 5726 5722 5721 5718 5713 5710 5707 5706 5705 5703 5703 5702 5701 5698 5698 5695 5693 5692 5692 5690 5687 5685 5682 5679 5676 5674 5672 5670 5668 5667 5665 5665 5665 5663 5662 5661 5660 5659 5659 5659 5659 5659
5719 5716 5714 5711 5707 5704 5703 5702 5700 5700 5699 5698 5698 5697 5696 5694 5693 5690 5690 5689 5685 5683 5683 5680 5678 5676 5675 5673 5672 5672 5670 5667 5665 5665 5663 5662 5661 5661 5660 5659 5658 5658 5657
5711 5708 5706 5704 5702 5700 5699 5696 5695 5695 5693 5693 5693 5692 5692 5691 5689 5689 5691 5687 5683 5680 5679 5677 5675 5674 5673 5672 5670 5669 5668 5665 5664 5664 5663 5661 5660 5660 5659 5658 5656 5655 5654
5703 5701 5699 5697 5695 5694 5693 5691 5691 5689 5689 5688 5689 5689 5689 5688 5687 5686 5687 5684 5679 5676 5675 5674 5672 5671 5670 5669 5668 5666 5664 5664 5662 5660 5659 5658 5656 5655 5655 5654 5653 5651 5650
5696 5694 5693 5689 5688 5688 5686 5684 5685 5685 5685 5685 5685 5685 5683 5681 5680 5681 5682 5678 5674 5672 5671 5671 5670 5668 5667 5665 5664 5663 5661 5659 5657 5655 5654 5653 5652 5650 5649 5649 5648 5646 5645
5689 5688 5687 5685 5683 5681 5678 5677 5679 5680 5680 5680 5680 5679 5679 5677 5676 5676 5675 5672 5669 5668 5667 5667 5666 5665 5663 5661 5660 5658 5657 5654 5652 5651 5649 5648 5647 5646 5644 5643 5642 5640 5638
5681 5680 5680 5680 5679 5675 5672 5673 5675 5675 5675 5675 5676 5676 5674 5672 5671 5669 5667 5666 5665 5663 5662 5661 5660 5658 5657 5657 5655 5652 5650 5648 5647 5646 5645 5642 5641 5639 5637 5635 5632 5631 5629
5673 5672 5674 5676 5676 5674 5673 5673 5674 5673 5672 5672 5671 5669 5667 5666 5664 5662 5662 5662 5660 5659 5657 5655 5654 5652 5650 5649 5647 5646 5645 5643 5642 5640 5639 5637 5635 5633 5631 5628 5625 5622 5619